User: anonymous   Login
Location: Fort Wayne
(41.1310°N, 85.1290°W)
Time: 03:26:23
(UTC-04:00)
Language:

Cosmos 1953 - Orbit

View from above orbital plane
View from above orbital plane
View from above satellite
View from above satellite

Ground track
Ground track

The orbit data is extracted from the following two-line orbital elements,

1 19210U 88050A   16180.53171671  .00000137  00000-0  76193-5 0  9993
2 19210  82.5162  16.1499 0014480  33.0045 327.2082 15.04822798524642
Epoch (UTC): 28 June 2016 12:45:40
Eccentricity: 0.0014480
inclination: 82.5162°
perigee height: 542 km
apogee height: 562 km
right ascension of ascending node: 16.1499°
argument of perigee: 33.0045°
revolutions per day: 15.04822798
mean anomaly at epoch: 327.2082°
orbit number at epoch: 52464

The dashed part of the orbit path shows where the satellite is in the earth's shadow,  

DLR